Location: Plymouth
(43.7570°N, 71.6890°W)
Time: 15:35:48
(UTC-05:00)

Daily predictions for brighter satellites

Satellite Brightness Start Highest point End
(mag) Time Altitude Azimuth Time Altitude Azimuth Time Altitude Azimuth
Abrixas rocket 3.2 17:58:00 10° SSW 18:01:02 32° SE 18:04:05 10° E
Cosmos 1300 Rocket 3.8 17:57:28 10° SSE 18:01:43 49° E 18:06:01 10° NNE
FREGAT/IRIS 3.5 17:58:57 10° SE 18:01:44 31° ENE 18:04:31 10° N
Cosmos 1536 3.6 18:00:50 10° SSE 18:04:19 29° E 18:07:49 10° NNE
Okean 1 4.0 18:01:53 10° NNW 18:05:55 63° W 18:09:56 10° S
COSMO-SKYMED 1 2.9 18:08:14 10° N 18:12:34 71° WNW 18:16:54 10° SSW
Cosmos 1340 2.9 18:10:33 10° NNW 18:14:20 74° W 18:18:06 10° S
Cosmos 1602 3.7 18:12:33 10° S 18:16:26 78° E 18:20:22 10° N
Cosmos 1741 Rocket 4.1 18:13:13 10° S 18:18:16 53° ESE 18:23:21 10° NNE
Cosmos 1833 4.4 18:13:28 10° SSW 18:19:09 76° WNW 18:24:50 10° NNE
Resurs 01 Rocket 2.2 18:19:29 10° SE 18:23:29 35° ENE 18:27:30 10° N
NOAA 12 4.2 18:18:41 10° SSE 18:24:01 89° WSW 18:29:23 10° NNW
Meteor 1-11 Rocket 3.8 18:18:19 10° S 18:24:08 75° E 18:30:04 10° NNE
Cosmos 2333 Rocket 2.9 18:20:37 10° N 18:25:49 34° NE 18:30:54 10° ESE
Cosmos 1140 Rocket 3.6 18:22:10 10° SSW 18:27:18 79° WNW 18:32:30 10° NNE
Cosmos 614 Rocket 3.9 18:23:10 10° SSW 18:28:14 81° ESE 18:33:20 10° NNE
FENGYUN 3A 3.7 18:25:51 10° SSE 18:31:09 58° ENE 18:36:28 10° N
Resurs 1-3 4.1 18:30:01 10° SE 18:34:03 38° ENE 18:38:07 10° N
ATLAS CENTAUR R/B 3.1 18:33:09 10° S 18:35:34 15° SE 18:36:04 15° SE
Cosmos 2181 Rocket 4.2 18:29:27 10° N 18:35:44 77° W 18:42:04 10° S
Cosmos 1570 Rocket 4.0 18:30:33 10° NNW 18:35:49 89° WSW 18:41:03 10° SSE
GPS 2-04 Rocket1 4.3 18:33:28 10° SW 18:37:01 26° S 18:39:42 15° SE
USA 229 DEB 3.8 18:32:19 10° NW 18:39:28 74° NE 18:46:43 10° SE
Cosmos 1633 3.7 18:35:59 10° SSW 18:39:33 47° WNW 18:43:08 10° N
USA 229 3.8 18:32:25 10° NW 18:39:34 74° NE 18:46:49 10° SE
Cosmos 1238 Rocket 3.5 18:37:09 10° NNW 18:39:57 41° W 18:42:50 10° SSW
Genesis I 4.2 18:36:09 10° NW 18:39:58 49° WSW 18:43:45 10° SSE
Okean 1 Rocket 3.2 18:37:56 10° S 18:42:25 81° W 18:46:56 10° N
Cosmos 468 Rocket 4.4 18:39:13 10° N 18:44:12 43° ENE 18:48:36 13° SE
Cosmos 1892 Rocket 4.1 18:41:03 10° N 18:45:05 35° ENE 18:48:49 12° SE
Cosmos 2074 Rocket 4.0 18:39:55 10° S 18:46:05 65° E 18:52:19 10° NNE
Cosmos 1025 Rocket 2.9 18:43:21 10° N 18:47:45 73° E 18:52:08 10° SSE
SL-08 ROCKET BODY 4.4 18:44:12 10° S 18:50:21 78° E 18:56:35 10° N
Spot 2 Rocket 3.4 18:45:58 10° SSE 18:50:58 66° ENE 18:56:02 10° N
OTV 4 2.7 18:49:39 10° SSW 18:51:18 14° SSE 18:51:22 14° SSE
Cosmos 2184 Rocket 3.9 18:46:13 10° S 18:52:27 70° E 18:58:41 10° NNE
USA 215 4.5 18:46:50 10° NE 18:52:37 35° NNW 18:58:22 10° W
Meteor 1-5 Rocket 4.3 18:46:57 10° S 18:52:51 68° E 18:58:40 10° NNE
FengYun 1-2 T 4.2 18:50:38 10° SSE 18:56:07 89° WSW 19:01:41 10° NNW
ATLAS 2AS CENTAUR R/B 4.4 18:50:12 10° NNW 18:56:22 23° NNE 19:00:39 15° ENE
USA 186 3.6 19:00:27 16° NNE 19:00:27 16° NNE 19:01:12 10° N
Spot 1 4.1 19:00:46 24° SE 19:02:54 49° ENE 19:06:58 10° N
ERS-1 Rocket 4.4 19:05:10 19° NE 19:05:10 19° NE 19:08:05 10° NNE
Cosmos 1814 Rocket 4.2 19:00:15 10° N 19:05:16 48° ENE 19:07:35 28° ESE
BREEZE-M DEB (TANK) 2.1 19:01:48 10° SW 19:05:16 56° SSE 19:05:21 55° SE
Envisat 3.7 19:06:50 31° E 19:07:35 32° ENE 19:12:05 10° N
Nadezhda 3 Rocket 4.1 19:02:55 10° N 19:08:55 52° ENE 19:14:49 10° SSE
Cosmos 1544 Rocket 3.6 19:05:43 10° SSE 19:09:54 50° E 19:14:06 10° NNE
NOSS 3-1 (C) 4.1 19:02:38 10° NNW 19:09:59 58° NE 19:14:48 26° ESE
NOSS 0 Rocket 3.8 19:04:29 10° NNW 19:10:39 72° ENE 19:15:08 19° SE
Cosmos 405 Rocket 2.7 19:06:34 10° N 19:10:39 72° E 19:13:11 21° SSE
Cosmos 2237 Rocket 2.3 19:06:27 10° NNW 19:12:04 54° ENE 19:14:36 31° ESE
ALOS 3.0 19:08:33 10° S 19:13:07 55° W 19:17:43 10° NNW
Cosmos 371 Rocket 4.4 19:10:35 10° N 19:14:25 27° NE 19:14:25 27° NE
Cosmos 2297 Rocket 2.9 19:10:17 10° SSE 19:14:23 31° ESE 19:14:23 31° ESE
COSMOS 2428 3.6 19:10:34 10° NW 19:16:03 50° WSW 19:21:31 10° S
H-2A R/B 2.9 19:12:28 10° S 19:16:10 69° W 19:19:57 10° NNW
CZ-2D R/B 3.1 19:14:14 19° SSE 19:16:52 88° ENE 19:20:42 10° NNW
Meteor 1-12 Rocket 4.5 19:14:37 10° SSE 19:20:20 50° E 19:26:01 10° NNE
Cosmos 2341 Rocket 4.2 19:14:43 10° SSE 19:20:44 46° E 19:26:48 10° NNE
Cosmos 2154 Rocket 4.0 19:15:42 10° S 19:21:55 63° E 19:28:11 10° NNE
Cosmos 2285 Rocket 4.3 19:16:27 10° NNW 19:22:51 69° WSW 19:29:12 10° S
Cosmos 2219 Rocket 2.3 19:18:44 10° NNW 19:24:20 76° WSW 19:28:57 15° SSE
Gbstr 26 Del rocket 3.7 19:21:07 10° W 19:24:39 38° NNW 19:25:40 31° NNE
Okean 2 4.0 19:24:00 10° NNW 19:28:06 57° W 19:32:12 10° S
Cosmos 2219 4.2 19:28:19 10° SW 19:33:49 46° WNW 19:39:21 10° NNE
Helios 1B rocket 2.3 19:30:15 10° NNE 19:34:26 83° ESE 19:38:35 10° SSW
Helios 1A 3.0 19:33:28 36° S 19:35:04 76° WSW 19:39:15 10° NNW
Cosmos 2227 Rocket 2.1 19:30:00 10° S 19:35:33 63° ESE 19:38:28 29° NE
Atlas Centaur 2 4.3 19:32:19 10° SSW 19:35:47 14° SSE 19:35:47 14° SSE
Cosmos 1486 Rocket 4.0 19:30:43 10° S 19:35:55 57° ESE 19:36:14 56° E
Abrixas rocket 3.2 19:34:29 10° W 19:37:11 47° WNW 19:37:11 47° WNW
Cosmos 1441 Rocket 4.1 19:35:42 10° N 19:38:20 39° N 19:38:20 39° N
Cosmos 841 Rocket 3.4 19:41:35 10° NNW 19:46:24 63° NE 19:46:24 63° NE
Cosmos 1455 Rocket 3.1 19:42:59 10° SSW 19:47:22 78° W 19:51:45 10° N
H-2A R/B 4.5 19:50:38 10° NNE 19:50:38 10° NNE 19:50:46 10° NNE
SL-16 R/B 2.6 19:42:24 10° NNW 19:47:22 45° NE 19:47:22 45° NE
Cosmos 962 Rocket 4.3 19:46:02 10° S 19:52:14 80° E 19:58:23 10° N
Meteor 2-8 Rocket 4.2 19:47:36 10° N 19:53:42 76° E 19:54:42 62° SE
Cosmos 1763 Rocket 3.3 19:52:12 10° NNW 19:57:21 85° WSW 19:57:29 83° SSW
Resurs 01 Rocket 3.9 19:56:32 10° SSW 20:00:02 23° W 20:03:34 10° NW
Cosmos 2333 Rocket 3.3 20:04:47 10° NW 20:10:09 41° WSW 20:12:59 24° SSW
GEOS 3 Rocket 4.1 20:08:20 36° NNE 20:10:17 57° NW 20:15:26 10° SW
Cosmos 1980 4.4 20:05:48 10° NW 20:11:13 49° WSW 20:12:50 38° SSW
Cosmos 2082 4.5 20:32:26 10° SW 20:37:59 50° WNW 20:37:59 50° WNW
NOSS 3-1 (A) 4.3 20:35:41 10° NW 20:43:13 62° WSW 20:44:06 59° SSW
ATLAS 2AS CENTAUR R/B 3.5 20:41:22 10° NNW 20:48:06 51° NNE 20:48:06 51° NNE
Cosmos 2237 Rocket 4.1 20:51:18 10° NW 20:55:43 24° W 20:56:29 23° WSW
Cosmos 2297 Rocket 4.0 20:53:54 10° SW 20:56:25 24° WSW 20:56:25 24° WSW
Cosmos 2227 Rocket 4.3 21:15:37 10° WSW 21:20:04 23° NW 21:20:36 23° NW
SL-16 R/B 4.4 21:27:00 10° NW 21:29:17 20° WNW 21:29:17 20° WNW
